Simultaneous Nadir Overpasses (SNOs) Predictions

Prediction of SNOs between NOAA-19 and METOP-C Satellite Orbit:

Table of predicted SNOs for the next 14.0 days since TLE Epoch: 6/29/2020
Index Date (NOAA-19) Time (NOAA-19) Lat,Lon (NOAA-19) SZA (NOAA-19 ) Date (METOP-C) Time (METOP-C) Lat,Lon (METOP-C) SZA (METOP-C ) Distance(km) Time Diff (sec)
1 07/08/2020 14:42:33 -80.20, 160.12 121.62 07/08/2020 14:43:40 -80.18, 163.46 121.40 63.21 67
2 07/08/2020 15:33:22 80.06, -30.59 58.39 07/08/2020 15:34:25 80.04, -30.70 58.38 3.17 63
3 07/08/2020 16:24:26 -80.05, 136.72 121.61 07/08/2020 16:25:05 -80.05, 136.77 121.60 1.00 39
4 07/08/2020 17:15:21 80.05, -55.91 58.40 07/08/2020 17:15:45 80.05, -55.86 58.42 1.31 24
5 07/08/2020 18:06:26 -80.04, 111.40 121.60 07/08/2020 18:06:27 -80.04, 111.31 121.61 1.85 1
6 07/08/2020 18:57:21 80.03, -81.23 58.41 07/08/2020 18:57:07 80.04, -81.33 58.41 2.04 14
7 07/08/2020 19:48:27 -80.05, 85.77 121.59 07/08/2020 19:47:49 -80.03, 85.84 121.62 2.95 38
8 07/08/2020 20:39:22 80.04,-106.87 58.42 07/08/2020 20:38:29 80.03,-106.79 58.39 2.13 53
